Regional Weather Roundup
Issued by NWS

Home | Current Version | Previous Version | Text Only | Print | Product List | Glossary On
Versions: 1 2 3 4 5 6 7 8 9 10 11 12 13 14 15 16 17 18 19 20 21 22 23 24 25 26 27 28 29 30 31 32 33 34 35 36 37 38 39 40 41 42 43 44 45 46 47 48 49 50
000
ASUS43 KMPX 030901
RWRMN
WEATHER ROUNDUP FOR MINNESOTA
NATIONAL WEATHER SERVICE TWIN CITIES/CHANHASSEN MN
300 AM CST SAT DEC 03 2016


NOTE: "FAIR" INDICATES FEW OR NO CLOUDS BELOW 12,000 FEET WITH NO
SIGNIFICANT WEATHER AND/OR OBSTRUCTIONS TO VISIBILITY. N/A MEANS
CURRENT SKY AND/OR WEATHER CONDITIONS ARE NOT AVAILABLE.

MNZ060>063-068>070-031000-
   Twin Cities Metro

CITY           SKY/WX    TMP DP  RH WIND       PRES   REMARKS
TWIN CITIES    CLOUDY    30  22  72 W7        30.30S WCI  23
ST PAUL        CLOUDY    30  25  81 SW9       30.32R WCI  22
CRYSTAL        CLOUDY    29  21  72 W6        30.29R WCI  23
BLAINE         CLOUDY    30  27  86 W5        30.29S WCI  25
LAKEVILLE      CLOUDY    27  21  80 W3        30.31R
EDEN PRAIRIE   CLOUDY    30  21  69 W5        30.29R WCI  25
SOUTH ST PAUL  CLOUDY    30  23  75 SW8       30.30S WCI  23
$$
MNZ001>005-007-008-013>017-022>024-027-028-031000-
   Northwest Minnesota

CITY           SKY/WX    TMP DP  RH WIND       PRES   REMARKS
HALLOCK        CLOUDY    30  27  86 S8        30.20F WCI  23
ROSEAU         CLOUDY    27  21  80 S5        30.22S WCI  21
WARROAD        CLOUDY    25  21  86 SE3       30.22F
THIEF RVR FALL CLOUDY    27  20  75 SW7       30.24  WCI  19
CROOKSTON      CLOUDY    28  21  74 S10       30.25S WCI  19
FOSSTON        CLOUDY    25  19  80 SW7       30.24S WCI  17
DETROIT LAKES  CLOUDY    27  21  80 SW6       30.26S WCI  20
MOORHEAD       CLOUDY    27  19  74 SW8       30.28F WCI  18
PARK RAPIDS    CLOUDY    25  16  68 SW6       30.25R WCI  18
$$
MNZ006-009>011-018-025>026-031000-
   North Central Minnesota

CITY           SKY/WX    TMP DP  RH WIND       PRES   REMARKS
BAUDETTE       CLOUDY    24  21  88 SW5       30.23S WCI  18
FLAG ISLAND    CLOUDY    25  19  80 SW6       30.21F WCI  18
INTL FALLS     CLOUDY    23  21  92 CALM      30.24
WASKISH        CLOUDY    25  21  86 CALM      30.24S
BIG FORK       CLOUDY    25  19  80 SW5       30.24F WCI  19
LONGVILLE      CLOUDY    25  19  80 CALM      30.25S
GRAND RAPIDS   CLOUDY    24  20  84 W5        30.27  WCI  18
CRANE LAKE     CLOUDY    21  19  93 CALM      30.27F
ORR            CLOUDY    21  19  93 CALM      30.22R
COOK           CLOUDY    23  21  93 CALM      30.24S
$$
MNZ012-019>021-037-031000-
   Northeast Minnesota

CITY           SKY/WX    TMP DP  RH WIND       PRES   REMARKS
DULUTH         CLOUDY    27  24  89 NW5       30.24  WCI  22
ELY            CLOUDY    23  21  93 NW3       30.23S
HIBBING        CLOUDY    24  20  84 W3        30.24S
EVELETH        CLOUDY    25  23  94 W3        30.25S
DULUTH HARBOR  CLOUDY    30  27  86 W6        30.29S WCI  24
SILVER BAY     CLOUDY    28  25  86 CALM      30.23S
GRAND MARAIS     N/A     32  24  72 N6        30.25S WCI  26
G MARAIS ARPRT CLOUDY    25  19  80 CALM      30.20R
$$
MNZ029>031-032-039>041-046>048-054>057-064-031000-
   West Central Minnesota

CITY           SKY/WX    TMP DP  RH WIND       PRES   REMARKS
FERGUS FALLS   CLOUDY    25  19  80 S9        30.32S WCI  15
WHEATON        CLOUDY   N/A N/A N/A SW5       30.30F
ALEXANDRIA     CLOUDY    24  18  77 VRB3      30.28S
ELBOW LAKE     CLOUDY    25  19  80 SW5       30.28F WCI  19
WADENA         CLOUDY    25  18  74 SW5       30.26R WCI  19
APPLETON       CLOUDY    28  19  69 W3        30.29F
ORTONVILLE     CLOUDY    27  18  69 CALM      30.28F
MADISON        CLOUDY    28  19  69 CALM      30.29F
WILLMAR        CLOUDY    28  21  74 CALM      30.31S
$$
MNZ033>034-036-042>043-049>051-058-059-031000-
   Central Minnesota

CITY           SKY/WX    TMP DP  RH WIND       PRES   REMARKS
ST CLOUD       CLOUDY    28  22  78 S3        30.28S
PAYNESVILLE    CLOUDY    26  20  79 W5        30.30S WCI  21
AITKIN         CLOUDY    28  21  74 CALM      30.25F
PINE RIVER     CLOUDY    25  19  80 CALM      30.28S
BRAINERD       CLOUDY    25  20  81 CALM      30.26F
STAPLES        CLOUDY    23  18  80 SW6       30.27R WCI  16
LITTLE FALLS   CLOUDY    28  21  74 CALM      30.28F
LITCHFIELD     CLOUDY    28  21  74 NW5       30.30S WCI  23
BUFFALO        CLOUDY    28  22  76 CALM      30.31R
$$
MNZ037-044-045-052-053-031000-
   East Central Minnesota

CITY           SKY/WX    TMP DP  RH WIND       PRES   REMARKS
PRINCETON      CLOUDY    28  25  86 CALM      30.29S
MORA           CLOUDY    28  23  80 CALM      30.30S
CAMBRIDGE      CLOUDY    30  21  69 CALM      30.27F
RUSH CITY      CLOUDY    28  25  86 W3        30.29S
MOOSE LAKE     CLOUDY    28  23  80 NW3       30.25S
CLOQUET        CLOUDY    27  21  80 CALM      30.25S
MCGREGOR       CLOUDY    28  25  86 CALM      30.27S
$$
MNZ071>073-080-081-089-090-097-098-031000-
   Southwest Minnesota

CITY           SKY/WX    TMP DP  RH WIND       PRES   REMARKS
MONTEVIDEO     CLOUDY    27  27 100 NW3       30.31F
GRANITE FALLS  CLOUDY    29  21  72 W6        30.31F WCI  23
CANBY          CLOUDY    28  20  71 CALM      30.29F
MARSHALL       CLOUDY    26  19  74 W9        30.30  WCI  17
REDWOOD FALLS  CLOUDY    29  20  69 NW5       30.30S WCI  24
OLIVIA         CLOUDY    30  23  74 NW6       30.29F WCI  24
PIPESTONE      CLEAR     25  19  80 CALM      30.27S
WORTHINGTON    CLOUDY    25  21  85 SW3       30.30
JACKSON        CLOUDY    27  19  74 W7        30.31R WCI  19
TRACY          CLOUDY    27  21  80 SW3       30.30R
SLAYTON        CLOUDY    25  20  80 NW6       30.29R WCI  18
$$
MNZ065>067-074>077-082>085-091>093-031000-
   South Central Minnesota

CITY           SKY/WX    TMP DP  RH WIND       PRES   REMARKS
MANKATO        FLURRIES  28  23  81 NW5       30.31  WCI  23
ST JAMES       CLOUDY    28  25  86 CALM      30.33R
FAIRMONT       CLOUDY    29  20  69 NW9       30.32  WCI  20
GLENCOE        CLOUDY    29  24  81 W5        30.30S WCI  24
FARIBAULT      CLOUDY    28  21  74 NW3       30.30S
OWATONNA       CLOUDY    28  21  74 N3        30.30R
WASECA         CLOUDY    30  25  80 CALM      30.31R
ALBERT LEA     CLOUDY    34  27  75 CALM      30.30R
$$
MNZ078>079-086>088-094>096-031000-
   Southeast Minnesota

CITY           SKY/WX    TMP DP  RH WIND       PRES   REMARKS
RED WING       CLOUDY    30  21  69 CALM      30.30R
STANTON        CLOUDY    30  22  70 SW5       30.30S WCI  26
DODGE CENTER   CLOUDY    27  21  80 NW5       30.29S WCI  21
WINONA         CLOUDY    32  23  69 W3        30.33S
AUSTIN         CLOUDY    28  21  74 W5        30.30R WCI  23
PRESTON        CLOUDY    28  21  77 W8        30.31R WCI  19
$$
ABBREVIATIONS USED IN REMARKS
   TC - TEMPERATURES IN CELSIUS
  WCI - WIND CHILL INDEX
   HX - HEAT INDEX
  VSB - VISIBILITY
$$



USA.gov is the U.S. government's official web portal to all federal, state and local government web resources and services.